Retour au catalogue

CZ-6A DEB

ActifPO
NORAD 61492·DEBRIS·🇨🇳 China

Lancé Aug 6, 2024 depuis Taiyuan Satellite Launch Center

Loading…

Prochains Passages (prochaines 24 heures)

TLE

FraisSource: Space-Track

Époque: Sep 14, 2026, 10:22 UTC

1 61492U 24140ABA 26257.43203387  .00002716  00000-0  53565-3 0  9998
2 61492  88.9884 258.7524 0125431 334.8477  24.6656 14.57311387106673

Suivez CZ-6A DEB en temps réel avec AllMySat

Download on the App Store